Showing default

M3MSAT, 41605

Orbit data source: Space-Track

M3MSAT, 41605 is a Canadian payload satellite in SSO that was launched on Wed, 22 Jun 2016 UTC via a PSLV-XL launch vehicle from the Sirharikota (SRI). Payload-class satellites include a variety of spacecraft equipped with specific instruments for various scientific and technological missions. These include communications satellites like Starlink; space stations such as the ISS; scientific satellites like the Hubble; Earth observation satellites from companies like Planet Labs, Umbra, and HawkEye 360; GPS; miniature CubeSats for education and research; and military/defense satellites.

Loading next visibility...
Identifier
41605, 2016-040G
Orbit
SSO
Last TLE update
22 hours ago
Origin
Manufacturer
Honeywell/ComDev
Mission
Operational Defense Communications
Bus & Motor
MMMS, Unknown motor
Mass
85 kg wet, 85 kg dry
Launch date (UTC)
2016-06-22 (9 years ago)
Launch vehicle
PSLV-XL
Launch site
Sirharikota (SRI)
Object type
Payload
Rocket body
Debris
Shape & HBR
Box, 0.8 m
Radar Cross Section
0.800 m², Medium (>0.1 m² and < 1m²)

Expand to show TLE details & history

TLE from 22 hours ago
0 M3MSAT
1 41605U 16040G   25181.60797859  .00035847  00000-0  36966-3 0  9995
2 41605  97.0785 207.6042 0007478 111.8372 248.3684 15.64701215502604
Epoch: 2025-06-30T14:35Z
TLE epoch observation values (Epoch: 2025-06-30T14:35:29.35Z)
Latitude
-0.00003°
Longitude
69.81656°
Altitude
379.123 km
Speed
7.681 km/s
True Right ascension
13h 50m 25s
True Declination
0° 00' 00"
Sunlit
Object was in daylight at epoch
Visualization orbit readout
Latitude
17.51167°
Longitude
-107.02273°
Altitude
373.483 km
Speed
7.689 km/s
Apparent Right ascension
05h 05m 50s
Apparent Declination
-35° 51' 03"
Sunlit
Object is in daylight
Visualization observer readout
Local Sidereal Time
00:25:02
Azimuth
129.353° SE
Elevation
-9.511°
Doppler factor
1
Orbital elements
Apogee altitude
376.038 km
Perigee altitude
365.944 km
Semi-major axis
6,749.128 km
Eccentricity
0.00075
Inclination
97.0785°
RAAN
207.6042°
Arg. of periapsis
111.8372°
True anomaly
Unknown
Mean anomaly
248.3684°
Eccentric anomaly
Unknown
Mean motion
3.91446 °/min
Orbital period
91.97 mins
BSTAR
0.00036966
Loading maneuver chart data...
Loading SW <> Apogee altitude chart data...
Loading historical data...
Loading historical data...
Loading historical data...
Loading historical data...
Loading historical data...
Loading historical data...
Loading historical data...

M3MSAT Visibility forecast

Observer location: undefined°, undefined°

Span
Click to sort rows by Start time (UTC) header in descending order
Start Az.
Max El. time (UTC)
Max El. Az.
Max El.
End time (UTC)
End Az.
5 mins2025-07-01 14:10:12.375Z33.894° NE2025-07-01 14:13:12.375Z118.158° SE25.501°2025-07-01 14:15:12.375Z161.148° S
4 mins2025-07-02 02:02:12.375Z191.15° SSW2025-07-02 02:03:12.375Z220.201° SW35.67°2025-07-02 02:06:12.375Z337.383° NNW
|